Flag for Germany

Past Weather in Heidenheim an der Brenz, Baden-Württemberg, Germany — Yesterday and Last 2 Weeks

Now
55 °F

Scattered clouds.


Feels Like: 53 °F
Forecast: 59 / 37 °F
Wind: 10 mph from Northeast

Location: Laupheim Airport

Current Time: Sep 19, 2019 at 7:04:39 pm

Latest Report: Sep 19, 2019 at 6:20 pm


Visibility: N/A

Pressure: 30.30 "Hg

Humidity: 47%

Dew Point: 36 °F

Location of Heidenheim an der BrenzLocation

Past Weather in Heidenheim an der Brenz — Graph

°F

Heidenheim an der Brenz Temperature Yesterday

Maximum temperature yesterday: 61 °F (at 4:20 pm)
Minimum temperature yesterday: 43 °F (at 6:20 am)
Average temperature yesterday: 51 °F

High & Low Weather Summary for the Past Weeks

 TemperatureHumidityPressure
High79 °F (Sep 16, 5:20 pm)100% (Sep 7, 7:20 am)30.51 "Hg (Sep 7, 7:20 am)
Low41 °F (Sep 19, 2:20 am)34% (Sep 18, 4:20 pm)29.98 "Hg (Sep 4, 6:20 pm)
Average57 °F77%30.20 "Hg
* Reported Sep 4 5:00 pm — Sep 19 5:20 pm, Heidenheim an der Brenz. Weather by CustomWeather, © 2019

Note: Actual official high and low records may vary slightly from our data, if they occured in-between our weather recording intervals... More about our weather records

Advertising

Heidenheim an der Brenz Weather History for the Previous 24 Hours

Scroll right to see more
 ConditionsComfort  
Time TempWeatherWind HumidityBarometerVisibility
5:20 pm
Thu, Sep 19
57 °FScattered clouds.12 mph41%30.30 "HgN/A
4:20 pm57 °FScattered clouds.10 mph41%30.30 "HgN/A
3:20 pm59 °FPassing clouds.10 mph42%30.30 "HgN/A
2:20 pm59 °FPassing clouds.13 mph42%30.33 "HgN/A
1:20 pm57 °FPassing clouds.12 mph44%30.33 "HgN/A
12:20 pm55 °FPassing clouds.12 mph47%30.33 "HgN/A
11:20 am54 °FPassing clouds.13 mph54%30.33 "HgN/A
10:20 am50 °FPassing clouds.13 mph62%30.33 "HgN/A
9:20 am46 °FPassing clouds.13 mph71%30.30 "HgN/A
8:20 am43 °FPartly sunny.6 mph76%30.30 "HgN/A
7:20 am41 °FPartly sunny.6 mph76%30.30 "HgN/A
6:20 am41 °FPassing clouds.5 mph76%30.27 "HgN/A
5:20 am41 °FPassing clouds.3 mph76%30.27 "HgN/A
4:20 am41 °FPassing clouds.5 mph81%30.27 "HgN/A
3:20 am43 °FPassing clouds.2 mph76%30.27 "HgN/A
2:20 am41 °FQuite cool.5 mph81%30.27 "HgN/A
1:20 am43 °FQuite cool.5 mph76%30.27 "HgN/A
12:20 am46 °FCool.3 mph66%30.27 "HgN/A
12:00 am46 °FCool.5 mph66%30.27 "HgN/A
11:20 pm
Wed, Sep 18
46 °FCool.3 mph66%30.27 "HgN/A
10:20 pm48 °FCool.5 mph66%30.24 "HgN/A
9:20 pm50 °FCool.6 mph62%30.24 "HgN/A
8:20 pm54 °FPassing clouds.5 mph54%30.24 "HgN/A
7:20 pm54 °FPassing clouds.7 mph58%30.21 "HgN/A
Weather by CustomWeather, © 2019

See weather overview